OneWeb SL0118

operational
NORAD ID: 47264 Int'l Des: 2020-100 Owner: ONEWEB Country: UK Constellation: oneweb
LEOCIRCULARPOLARONEWEB_TYPE

关于 OneWeb SL0118

正在加载描述...

实时位置

正在加载3D地球...

即将过境

高度历史

Altitude vs Time

uPlot chart will show altitude changes over time

两行轨道根数

1 47264U 20100G 26035.98445781 -.00000187 00000-0 -55457-3 0 9995
2 47264 87.8950 16.8909 0002140 86.8819 273.2555 13.12445607247388
Epoch: Feb 4, 2026 • Age: 13 hours

当前状态

高度 1217.5 km
速度 7.25 km/s
星下点 -5.27°S, 54.8°E
发射日期 Dec 18, 2020
运行时间 5.1 years
类型 internet

技术详情

分类 Payload
质量 148.00 kg
干质量 140.00 kg
总质量 148.00 kg
长度 1.30 m
直径 1.00 m
跨度 5.00 m
形状 Trapezoid+2 pan
制造商 ONEWUS
平台类型 ARROW
阶段状态 In Orbit
所有者/国家 ONEWEB/UK

大型星座

Loading constellations...